Flag for Philippines Weather past 2 weeks in Makati, Philippines

Now
88 °F

Passing clouds.


Feels Like: 88 °F
Forecast: 73 / 90 °F
Wind: 13 mph from East

Location: National Airport

Current Time: Mar 2, 2015 at 11:51:25 AM

Latest Report: Mar 2, 2015 at 11:00 AM


Visibility: N/A

Pressure: 29.92 "Hg

Humidity: 40%

Dew point: 61 °F

Location of MakatiLocation

Historic Weather in Makati — Graph

°F

Makati temperature yesterday

Maximum temperature yesterday: 91 °F (at 3:00 PM)
Minimum temperature yesterday: 73 °F (at 2:00 AM)
Average temperature yesterday: 81 °F

Past Weeks' High & Low Weather Summary

 TemperatureHumidityPressure
High91 °F (Mar 1, 3:00 PM)100% (Feb 20, 1:00 PM)30.01 "Hg (Feb 20, 1:00 PM)
Low68 °F (Feb 20, 1:00 PM)41% (Mar 1, 3:00 PM)29.83 "Hg (Feb 17, 2:00 PM)
Average80 °F66%29.93 "Hg
* Reported Feb 15 10:00 AM — Mar 2 10:00 AM, Makati, Weather by CustomWeather, © 2015

Note: Actual official high and low records may vary slightly from our data, if they occured in-between our weather recording intervals... More about our weather records

Advertising

Makati weather history for previous 24 hours

 ConditionsComfort  
Time TempWeatherWind HumidityBarometerVisibility
10:00 AM
Mon, Mar 2
90 °FPassing clouds.9 mph41%29.95 "HgN/A
9:00 AM73 °FPassing clouds.7 mph74%29.95 "HgN/A
8:00 AM81 °FPassing clouds.6 mph54%29.95 "HgN/A
7:00 AM75 °FPassing clouds.3 mph69%29.92 "HgN/A
6:00 AM73 °FPassing clouds.3 mph78%29.92 "HgN/A
5:00 AM73 °FPassing clouds.3 mph83%29.89 "HgN/A
4:00 AM73 °FPassing clouds.3 mph83%29.89 "HgN/A
3:00 AM77 °FPassing clouds.6 mph74%29.89 "HgN/A
2:00 AM77 °FPassing clouds.7 mph74%29.92 "HgN/A
1:00 AM77 °FPassing clouds.10 mph74%29.92 "HgN/A
12:00 AM79 °FPassing clouds.12 mph70%29.92 "HgN/A
11:00 PM
Sun, Mar 1
79 °FPassing clouds.8 mph70%29.95 "HgN/A
10:00 PM79 °FPassing clouds.5 mph65%29.95 "HgN/A
9:00 PM79 °FPassing clouds.7 mph65%29.95 "HgN/A
8:00 PM81 °FPassing clouds.8 mph58%29.92 "HgN/A
7:00 PM82 °FPassing clouds.7 mph55%29.92 "HgN/A
6:00 PM84 °FScattered clouds.10 mph48%29.89 "HgN/A
5:00 PM86 °FBroken clouds.10 mph46%29.86 "HgN/A
4:00 PM88 °FScattered clouds.13 mph43%29.86 "HgN/A
3:00 PM91 °FPassing clouds.8 mph41%29.86 "HgN/A
2:00 PM90 °FPassing clouds.7 mph43%29.89 "HgN/A
1:00 PM86 °FPassing clouds.8 mph55%29.92 "HgN/A
12:00 PM82 °FPassing clouds.9 mph62%29.95 "HgN/A
11:00 AM82 °FPassing clouds.9 mph62%29.98 "HgN/A
Weather by CustomWeather, © 2015

See weather overviewHow to use our weather pages